Location: Dackenheim
(49.5215°N, 8.1854°E)
Time: 13:06:19
(UTC+00:00)

AO-27 - Visible Passes

Search period start: 10 March 2026 00:00
Search period end: 20 March 2026 00:00
Orbit: 782 x 795 km, 98.7° (Epoch: 10 March)

Date Brightness Start Highest point End Pass type
(mag) Time Alt. Az. Time Alt. Az. Time Alt. Az.
10 Mar 8.3 20:04:43 41° NE 20:04:43 41° NE 20:08:41 10° N visible
10 Mar 9.8 21:45:24 22° WNW 21:45:24 22° WNW 21:47:51 10° NW visible
11 Mar 8.7 19:34:17 28° NE 19:34:17 28° NE 19:38:23 10° N visible
11 Mar 9.0 21:14:59 35° NW 21:14:59 35° NW 21:18:17 10° NNW visible
12 Mar 9.2 19:03:52 17° ENE 19:04:26 18° NE 19:07:47 10° NNE visible
12 Mar 8.3 20:44:34 52° NNW 20:44:34 52° NNW 20:48:27 10° NNW visible
12 Mar 10.4 22:25:15 12° WNW 22:25:15 12° WNW 22:26:00 10° WNW visible
13 Mar 9.6 18:33:45 10° ENE 18:35:00 11° NE 18:36:13 10° NE visible
13 Mar 8.1 20:14:08 49° NE 20:14:08 49° NE 20:18:25 10° N visible
13 Mar 9.8 21:54:50 20° WNW 21:54:50 20° WNW 21:57:18 10° NW visible
14 Mar 8.5 19:43:43 33° ENE 19:43:43 33° ENE 19:48:10 10° N visible
14 Mar 9.1 21:24:25 34° WNW 21:24:25 34° WNW 21:27:51 10° NNW visible
15 Mar 9.0 19:13:18 20° ENE 19:13:58 20° ENE 19:17:41 10° N visible
15 Mar 8.2 20:53:59 54° NW 20:53:59 54° NW 20:58:05 10° NNW visible
15 Mar 10.5 22:34:41 10° WNW 22:34:41 10° WNW 22:34:45 10° WNW visible
16 Mar 9.5 18:42:53 11° ENE 18:44:28 13° NE 18:46:39 10° NNE visible
16 Mar 7.8 20:23:34 59° NNE 20:23:34 59° NNE 20:28:06 10° N visible
16 Mar 9.9 22:04:16 18° WNW 22:04:16 18° WNW 22:06:41 10° NW visible
17 Mar 8.2 19:53:09 38° ENE 19:53:10 38° ENE 19:57:56 10° N visible
17 Mar 9.2 21:33:50 31° WNW 21:33:50 31° WNW 21:37:23 10° NNW visible
18 Mar 8.9 19:22:45 23° ENE 19:23:30 24° ENE 19:27:33 10° N visible
18 Mar 8.3 21:03:25 53° WNW 21:03:25 53° WNW 21:07:42 10° NNW visible
19 Mar 9.4 18:52:19 13° ENE 18:53:57 15° NE 18:56:46 10° NNE visible
19 Mar 7.7 20:33:01 71° NNE 20:33:01 71° NNE 20:37:47 10° NNW visible
19 Mar 10.0 22:13:42 16° WNW 22:13:42 16° WNW 22:15:58 10° NW visible
